カタログに戻る

COSMOS 2528 DEB

運用中LEO
NORAD 45038·DEBRIS·🇷🇺 Russia

打ち上げ Oct 25, 2018 から Plesetsk Cosmodrome

Loading…

次のパス (今後24時間)

TLE

最新Source: Space-Track

元期: Sep 14, 2026, 14:31 UTC

1 45038U 18082D   26257.60527824  .00000657  00000-0  49121-3 0  9993
2 45038  67.1660 219.9857 0021321 232.9500 126.9638 14.00617271339457

AllMySatでCOSMOS 2528 DEBをリアルタイム追跡

Download on the App Store